Location: Bellerive
(46.9237°N, 7.0223°E)
Time: 22:39:26
(UTC+00:00)

CZ-4C R/B - Pass Details

Date: 09 April 2020
Orbit: 637 x 1365 km, 63.4° (Epoch: 26 May)

Event Time Altitude Azimuth Distance (km) Brightness Sun altitude
Rises 20:49:50 0° 320° (NW) 3,734 7.0 -24.2°
Reaches altitude 10° 20:52:20 10° 325° (NW) 2,883 6.0 -24.5°
Maximum altitude 20:59:12 55° 43° (NE) 1,409 3.2 -25.3°
Enters shadow 21:01:47 40° 96° (E) 1,751 3.4 -25.6°
